weather.gov     
National Weather Service

Terminal Aerodrome Forecast
NWS Homepage
This page is being discontinued on March 12, 2014.
The same data is available at this site. Please update your bookmarks.
Thank you, and we apologize for the inconvenience.
Please send an email to SR-SRH.Webmaster@noaa.gov with any concerns.


Current Version
Previous Version:    01  02  03  04  05  06  07  08  09  10  11  12  13  14  15  16  17  18  19  20  21  22  23  
[Printable]
234
FTUS43 KLBF 220500
TAFVTN
TAF
KVTN 220520Z 2206/2306 VRB06KT P6SM SCT200
     FM221600 VRB06KT P6SM BKN150 PROB30 2223/2303 VRB40KT 2SM +TSRA
      OVC030CB
     FM230300 07007KT P6SM -TSRA OVC070CB
      TEMPO 2303/2306 VRB40KT 1SM +TSRA OVC020CB=


U.S. Dept. of Commerce
NOAA National Weather Service
1325 East West Highway
Silver Spring, MD 20910
E-mail: w-nws.webmaster@noaa.gov
Page last modified: May 16, 2007
NATIONAL WEATHER SERVICE: for Safety, for Work, for Fun - FOR LIFE